CT2IRJ-11 Weather Reports


Display with metric or nautical units.
time (UTC)temp
F
wind
direction
speed
MPH
gust
MPH
rain 1hr
in
rain 24hr
in
rain mn
in
humidity
%
barometer
mb
20260508132330 71 184 5.0 7.0 0.00 0.00 0.00 46 1008.1
20260508131831 70 209 4.0 6.0 0.00 0.00 0.00 47 1008.5
20260508131329 69 235 3.0 5.0 0.00 0.00 0.00 48 1008.8
20260508130829 68 240 5.0 6.0 0.00 0.00 0.00 49 1008.5
20260508130329 69 250 5.0 8.0 0.00 0.00 0.00 48 1008.5
20260508125830 69 152 2.0 3.0 0.00 0.00 0.00 49 1008.8
20260508125331 70 231 7.0 8.0 0.00 0.00 0.00 46 1008.8
20260508124830 69 197 5.0 7.0 0.00 0.00 0.00 47 1008.8
20260508124331 69 107 7.0 13.0 0.00 0.00 0.00 46 1008.8
20260508123829 70 180 4.0 5.0 0.00 0.00 0.00 48 1008.8
20260508123330 70 169 3.0 6.0 0.00 0.00 0.00 48 1008.8
20260508122830 69 263 3.0 5.0 0.00 0.00 0.00 48 1009.1
20260508122329 70 256 4.0 8.0 0.00 0.00 0.00 48 1009.1
20260508121829 67 240 2.0 3.0 0.00 0.00 0.00 52 1009.1
20260508121330 67 170 4.0 5.0 0.00 0.00 0.00 53 1009.1
20260508120829 68 200 3.0 3.0 0.00 0.00 0.00 53 1009.1
20260508120329 69 230 2.0 3.0 0.00 0.00 0.00 50 1009.5
20260508115829 68 250 2.0 3.0 0.00 0.00 0.00 52 1009.1
20260508115330 68 233 6.0 8.0 0.00 0.00 0.00 51 1009.5
20260508114829 66 152 4.0 5.0 0.00 0.00 0.00 54 1009.5
20260508114329 65 185 5.0 6.0 0.00 0.00 0.00 55 1009.5
20260508113829 65 151 1.0 2.0 0.00 0.00 0.00 55 1009.5
20260508113329 67 218 4.0 6.0 0.00 0.00 0.00 55 1009.5
20260508112830 68 211 3.0 5.0 0.00 0.00 0.00 53 1009.8
20260508112329 68 121 3.0 5.0 0.00 0.00 0.00 52 1009.8
20260508111829 66 274 6.0 8.0 0.00 0.00 0.00 53 1009.5
20260508111330 68 231 2.0 3.0 0.00 0.00 0.00 52 1009.8
20260508110830 68 223 3.0 3.0 0.00 0.00 0.00 52 1009.8
20260508110330 69 210 3.0 5.0 0.00 0.00 0.00 51 1009.8
20260508105829 68 166 5.0 7.0 0.00 0.00 0.00 52 1010.2
20260508105329 68 200 4.0 6.0 0.00 0.00 0.00 54 1009.8
20260508104420 67 208 3.0 5.0 0.00 0.00 0.00 55 1010.5
20260508103829 67 211 3.0 5.0 0.00 0.00 0.00 56 1010.2
20260508103330 65 180 3.0 3.0 0.00 0.00 0.00 55 1010.2
20260508102829 66 220 3.0 5.0 0.00 0.00 0.00 57 1010.2
20260508102329 66 227 4.0 5.0 0.00 0.00 0.00 55 1010.5
20260508101835 66 230 1.0 2.0 0.00 0.00 0.00 55 1010.5
20260508101330 66 220 4.0 5.0 0.00 0.00 0.00 55 1010.5
20260508100831 65 232 3.0 3.0 0.00 0.00 0.00 56 1010.2
20260508100333 66 227 2.0 2.0 0.00 0.00 0.00 55 1010.2
20260508095830 66 226 3.0 5.0 0.00 0.00 0.00 55 1010.2
20260508095330 65 230 2.0 3.0 0.00 0.00 0.00 58 1010.2
20260508094833 64 231 4.0 6.0 0.00 0.00 0.00 58 1010.5
20260508094330 64 216 4.0 6.0 0.00 0.00 0.00 59 1010.5
20260508093830 64 218 1.0 2.0 0.00 0.00 0.00 59 1010.5
20260508093329 63 214 3.0 5.0 0.00 0.00 0.00 59 1010.5
20260508092829 64 224 5.0 7.0 0.00 0.00 0.00 59 1010.5
20260508092329 64 214 1.0 2.0 0.00 0.00 0.00 61 1010.5
20260508091830 64 230 4.0 6.0 0.00 0.00 0.00 62 1010.5
20260508091330 63 225 3.0 5.0 0.00 0.00 0.00 63 1010.5
20260508090829 61 226 4.0 5.0 0.00 0.00 0.00 63 1010.8
20260508090330 61 218 3.0 5.0 0.00 0.00 0.00 65 1010.5
20260508085830 61 220 2.0 3.0 0.00 0.00 0.00 66 1010.8
20260508085330 60 223 3.0 5.0 0.00 0.00 0.00 67 1010.5
20260508084829 60 214 2.0 3.0 0.00 0.00 0.00 67 1010.5
20260508084329 60 217 3.0 3.0 0.00 0.00 0.00 70 1010.5
20260508083830 60 220 2.0 3.0 0.00 0.00 0.00 71 1010.8
20260508083331 60 223 0.0 1.0 0.00 0.00 0.00 74 1010.8
20260508082829 59 211 5.0 7.0 0.00 0.00 0.00 74 1010.8
20260508082329 58 232 4.0 5.0 0.00 0.00 0.00 77 1010.5
20260508081830 58 207 3.0 6.0 0.00 0.00 0.00 77 1010.5
20260508081329 59 229 3.0 5.0 0.00 0.00 0.00 76 1010.5
20260508080829 59 222 1.0 2.0 0.00 0.00 0.00 75 1010.5
20260508080329 59 220 2.0 3.0 0.00 0.00 0.00 74 1010.5
20260508075829 60 226 1.0 2.0 0.00 0.00 0.00 74 1010.5
20260508075329 60 227 1.0 2.0 0.00 0.00 0.00 72 1010.5
20260508074829 59 226 2.0 3.0 0.00 0.00 0.00 75 1010.5
20260508074329 58 226 0.0 0.0 0.00 0.00 0.00 76 1010.2
20260508073830 57 226 3.0 5.0 0.00 0.00 0.00 77 1010.5
20260508073336 57 226 0.0 1.0 0.00 0.00 0.00 78 1010.5
20260508072829 56 226 2.0 2.0 0.00 0.00 0.00 78 1010.2
20260508072329 56 224 2.0 2.0 0.00 0.00 0.00 78 1010.5
20260508071829 56 222 0.0 1.0 0.00 0.00 0.00 78 1010.5
20260508071329 56 227 0.0 0.0 0.00 0.00 0.00 79 1010.2
20260508070829 56 228 1.0 1.0 0.00 0.00 0.00 78 1010.2
20260508070330 56 223 2.0 2.0 0.00 0.00 0.00 78 1009.8
20260508065829 55 226 0.0 1.0 0.00 0.00 0.00 80 1010.2
20260508065329 55 228 0.0 0.0 0.00 0.00 0.00 81 1010.2
20260508064829 54 225 2.0 2.0 0.00 0.00 0.00 82 1010.2
20260508064329 54 226 0.0 0.0 0.00 0.00 0.00 86 1009.8
20260508063829 54 225 0.0 0.0 0.00 0.00 0.00 86 1009.8
20260508063329 54 225 0.0 0.0 0.00 0.00 0.00 85 1009.5
20260508062829 54 225 0.0 0.0 0.00 0.00 0.00 85 1009.8
20260508062330 54 225 1.0 1.0 0.00 0.00 0.00 86 1009.8
20260508061830 54 226 1.0 1.0 0.00 0.00 0.00 86 1009.5
20260508061329 54 226 0.0 1.0 0.00 0.00 0.00 86 1009.5
20260508060830 54 226 0.0 0.0 0.00 0.00 0.00 86 1009.5
20260508060330 54 226 0.0 0.0 0.00 0.00 0.00 85 1009.5
20260508055829 54 226 0.0 0.0 0.00 0.00 0.00 85 1009.5
20260508055329 53 227 0.0 0.0 0.00 0.00 0.00 85 1009.5
20260508054829 53 227 0.0 0.0 0.00 0.00 0.00 86 1009.5
20260508054329 53 227 0.0 0.0 0.00 0.00 0.00 86 1009.8
20260508053829 54 227 0.0 0.0 0.00 0.00 0.00 85 1009.5
20260508053329 54 227 0.0 0.0 0.00 0.00 0.00 85 1009.1
20260508052829 54 227 0.0 0.0 0.00 0.00 0.00 85 1009.1
20260508052329 53 227 0.0 0.0 0.00 0.00 0.00 85 1009.1
20260508051829 53 227 0.0 0.0 0.00 0.00 0.00 85 1009.1
20260508051329 53 228 0.0 0.0 0.00 0.00 0.00 85 1009.5
20260508050829 53 228 0.0 0.0 0.00 0.00 0.00 84 1009.5
20260508050330 53 228 0.0 0.0 0.00 0.00 0.00 84 1009.5
20260508045831 53 228 0.0 0.0 0.00 0.00 0.00 84 1009.5
20260508045330 53 228 0.0 0.0 0.00 0.00 0.00 84 1009.1
20260508044829 54 228 0.0 0.0 0.00 0.00 0.00 83 1009.1
20260508044329 54 228 0.0 0.0 0.00 0.00 0.00 83 1009.1
20260508043831 54 228 0.0 0.0 0.00 0.00 0.00 83 1009.1
20260508043331 54 227 0.0 0.0 0.00 0.00 0.00 83 1009.1
20260508042829 54 227 0.0 0.0 0.00 0.00 0.00 83 1009.1
20260508042331 54 227 0.0 0.0 0.00 0.00 0.00 83 1009.5
20260508041830 54 221 0.0 0.0 0.00 0.00 0.00 83 1009.5
20260508041330 54 224 0.0 0.0 0.00 0.00 0.00 84 1009.5
20260508040830 53 225 1.0 1.0 0.00 0.00 0.00 84 1009.5
20260508040332 53 225 0.0 0.0 0.00 0.00 0.00 85 1009.1
20260508035829 53 225 0.0 0.0 0.00 0.00 0.00 86 1009.1
20260508035330 53 230 0.0 0.0 0.00 0.00 0.00 87 1009.1
20260508034829 53 230 0.0 0.0 0.00 0.00 0.00 87 1009.1
20260508034330 53 230 0.0 0.0 0.00 0.00 0.00 87 1008.8
20260508033829 53 230 0.0 0.0 0.00 0.00 0.00 87 1009.1
20260508033329 53 230 0.0 0.0 0.00 0.00 0.00 87 1008.8
20260508032830 53 230 0.0 0.0 0.00 0.00 0.00 87 1009.5
20260508032329 53 230 0.0 0.0 0.00 0.00 0.00 87 1009.1
20260508031830 53 230 0.0 0.0 0.00 0.00 0.00 87 1009.5
20260508031330 53 231 0.0 0.0 0.00 0.00 0.00 87 1009.1
20260508030829 53 232 1.0 1.0 0.00 0.00 0.00 87 1009.5
20260508030330 53 232 0.0 0.0 0.00 0.00 0.00 87 1009.5
20260508025829 53 232 0.0 0.0 0.00 0.00 0.00 87 1009.5
20260508025329 53 232 0.0 0.0 0.00 0.00 0.00 87 1009.5
20260508024829 53 232 0.0 0.0 0.00 0.00 0.00 87 1009.5
20260508024329 53 232 0.0 0.0 0.00 0.00 0.00 86 1009.1
20260508023829 53 233 0.0 0.0 0.00 0.00 0.00 86 1009.5
20260508023329 53 233 0.0 0.0 0.00 0.00 0.00 86 1009.5
20260508022829 53 233 0.0 0.0 0.00 0.00 0.00 86 1009.5
20260508022330 53 233 0.0 0.0 0.00 0.00 0.00 86 1009.8
20260508021830 53 233 0.0 0.0 0.00 0.00 0.00 86 1009.5
20260508021330 53 233 0.0 0.0 0.00 0.00 0.00 86 1009.8
20260508020830 54 233 0.0 0.0 0.00 0.00 0.00 86 1009.8
20260508020330 54 235 0.0 0.0 0.00 0.00 0.00 86 1009.8
20260508015829 54 235 0.0 0.0 0.00 0.00 0.00 86 1009.5
20260508015330 54 235 0.0 0.0 0.00 0.00 0.00 86 1009.8
20260508014829 54 235 0.0 0.0 0.00 0.00 0.00 85 1009.8
20260508014329 54 235 0.0 1.0 0.00 0.00 0.00 85 1009.8
20260508013829 54 236 0.0 0.0 0.00 0.00 0.00 85 1010.2
20260508013330 54 235 0.0 1.0 0.00 0.00 0.00 85 1009.8
20260508012831 54 244 0.0 0.0 0.00 0.00 0.00 84 1009.5
20260508012329 54 243 0.0 0.0 0.00 0.00 0.00 84 1009.8
20260508011830 55 237 0.0 0.0 0.00 0.00 0.00 84 1010.2
20260508011330 55 244 0.0 0.0 0.00 0.00 0.00 84 1010.2
20260508010829 55 245 1.0 1.0 0.00 0.00 0.00 83 1009.8
20260508010329 55 238 0.0 0.0 0.00 0.00 0.00 84 1010.2
20260508005830 54 237 2.0 2.0 0.00 0.00 0.00 84 1010.2
20260508005330 54 242 0.0 1.0 0.00 0.00 0.00 85 1010.2
20260508004830 54 244 0.0 0.0 0.00 0.00 0.00 85 1010.2
20260508004330 54 245 0.0 0.0 0.00 0.00 0.00 85 1010.2
20260508003829 54 245 1.0 1.0 0.00 0.00 0.00 85 1009.8
20260508003329 54 249 0.0 0.0 0.00 0.00 0.00 85 1010.2
20260508002830 54 252 0.0 0.0 0.00 0.00 0.00 85 1010.2
20260508002330 54 248 0.0 0.0 0.00 0.00 0.00 85 1010.2
20260508001829 54 256 0.0 0.0 0.00 0.00 0.00 86 1010.2
20260508001330 54 265 0.0 0.0 0.00 0.00 0.00 86 1010.2
20260508000830 54 248 0.0 0.0 0.00 0.00 0.00 86 1010.2
20260508000329 54 248 0.0 0.0 0.00 0.00 0.00 85 1009.8
20260507235829 54 248 0.0 0.0 0.00 0.00 0.00 85 1010.2
20260507235330 54 248 0.0 0.0 0.00 0.00 0.00 85 1009.8
20260507234829 54 248 0.0 0.0 0.00 0.00 0.00 85 1010.2
20260507234329 55 248 0.0 0.0 0.00 0.00 0.00 85 1010.2
20260507233829 55 248 0.0 0.0 0.00 0.00 0.00 84 1010.2
20260507233330 55 248 0.0 0.0 0.00 0.00 0.00 84 1010.5
20260507232830 55 248 0.0 0.0 0.00 0.00 0.00 84 1010.8
20260507232330 55 248 0.0 0.0 0.00 0.00 0.00 84 1010.5
20260507231830 55 249 0.0 0.0 0.00 0.00 0.00 83 1010.5
20260507231329 55 249 0.0 0.0 0.00 0.00 0.00 82 1010.5
20260507230829 56 249 0.0 0.0 0.00 0.00 0.00 82 1010.5
20260507230330 56 249 0.0 0.0 0.00 0.00 0.00 81 1010.5
20260507225830 56 249 0.0 0.0 0.00 0.00 0.00 81 1010.8
20260507225330 56 249 0.0 0.0 0.00 0.00 0.00 81 1010.8
20260507224830 56 249 0.0 0.0 0.00 0.00 0.00 81 1010.8
20260507224329 56 249 0.0 0.0 0.00 0.00 0.00 80 1010.8
20260507223830 56 250 0.0 0.0 0.00 0.00 0.00 80 1010.8
20260507223329 56 254 2.0 2.0 0.00 0.00 0.00 80 1010.8
20260507222829 56 250 1.0 1.0 0.00 0.00 0.00 80 1010.8
20260507222329 56 250 0.0 0.0 0.00 0.00 0.00 80 1010.8
20260507221830 57 255 2.0 2.0 0.00 0.00 0.00 80 1011.2
20260507221331 57 250 1.0 1.0 0.00 0.00 0.00 79 1011.2
20260507220829 57 250 1.0 1.0 0.00 0.00 0.00 79 1011.2
20260507220330 57 254 0.0 1.0 0.00 0.00 0.00 78 1010.8
20260507215837 57 250 1.0 1.0 0.00 0.00 0.00 78 1011.2
20260507215329 57 252 1.0 1.0 0.00 0.00 0.00 78 1011.2
20260507214830 57 251 0.0 0.0 0.00 0.00 0.00 78 1011.2
20260507214330 57 255 2.0 3.0 0.00 0.00 0.00 78 1011.2
20260507213830 57 256 2.0 2.0 0.00 0.00 0.00 78 1011.2
20260507213329 57 252 2.0 2.0 0.00 0.00 0.00 78 1011.2
20260507212829 57 252 1.0 2.0 0.00 0.00 0.00 78 1011.5
20260507212330 57 253 2.0 2.0 0.00 0.00 0.00 77 1011.2
20260507211830 57 251 2.0 2.0 0.00 0.00 0.00 77 1011.2
20260507211332 57 253 1.0 2.0 0.00 0.00 0.00 78 1011.2
20260507210830 58 252 2.0 2.0 0.00 0.00 0.00 77 1011.5
20260507210329 58 254 2.0 2.0 0.00 0.00 0.00 77 1011.2
20260507205829 58 250 1.0 1.0 0.00 0.00 0.00 77 1011.5
20260507205329 58 251 1.0 1.0 0.00 0.00 0.00 77 1011.2
20260507204829 58 250 0.0 1.0 0.00 0.00 0.00 76 1011.2
20260507204330 58 255 2.0 3.0 0.00 0.00 0.00 75 1011.2
20260507203830 58 253 1.0 1.0 0.00 0.00 0.00 75 1011.2
20260507203329 59 253 2.0 2.0 0.00 0.00 0.00 75 1010.8
20260507202835 59 255 2.0 2.0 0.00 0.00 0.00 74 1011.2
20260507202330 59 253 1.0 2.0 0.00 0.00 0.00 74 1010.8
20260507201829 59 258 1.0 1.0 0.00 0.00 0.00 74 1010.8
20260507201329 59 258 1.0 1.0 0.00 0.00 0.00 73 1010.8
20260507200830 59 255 1.0 1.0 0.00 0.00 0.00 73 1010.5
20260507200329 59 258 2.0 2.0 0.00 0.00 0.00 73 1010.5
20260507195830 59 259 3.0 3.0 0.00 0.00 0.00 72 1010.5
20260507195329 59 254 3.0 3.0 0.00 0.00 0.00 72 1010.5
20260507194829 60 258 1.0 2.0 0.00 0.00 0.00 72 1010.5
20260507194330 60 258 1.0 2.0 0.00 0.00 0.00 71 1010.2
20260507193829 60 260 1.0 2.0 0.00 0.00 0.00 70 1010.5
20260507192858 60 262 1.0 2.0 0.00 0.00 0.00 70 1010.5
20260507192329 61 261 1.0 1.0 0.00 0.00 0.00 69 1010.2
20260507191830 61 260 2.0 2.0 0.00 0.00 0.00 68 1010.2
20260507191329 61 266 2.0 2.0 0.00 0.00 0.00 67 1010.5
20260507190832 61 260 1.0 2.0 0.00 0.00 0.00 67 1009.8
20260507190330 61 261 1.0 2.0 0.00 0.00 0.00 67 1009.8
20260507185829 61 266 2.0 2.0 0.00 0.00 0.00 67 1010.2
20260507185329 62 267 1.0 1.0 0.00 0.00 0.00 66 1010.2
20260507184829 62 265 3.0 3.0 0.00 0.00 0.00 65 1010.2
20260507184330 62 248 3.0 3.0 0.00 0.00 0.00 65 1009.8
20260507183829 62 266 1.0 1.0 0.00 0.00 0.00 65 1009.8
20260507183330 62 268 4.0 6.0 0.00 0.00 0.00 64 1009.8
20260507182830 62 268 4.0 6.0 0.00 0.00 0.00 64 1009.8
20260507182330 62 267 2.0 2.0 0.00 0.00 0.00 64 1009.8
20260507181830 63 267 2.0 2.0 0.00 0.00 0.00 63 1009.8
20260507181330 63 268 2.0 2.0 0.00 0.00 0.00 64 1009.5
20260507180830 63 269 3.0 3.0 0.00 0.00 0.00 63 1009.8
20260507180329 63 259 3.0 3.0 0.00 0.00 0.00 63 1009.8
20260507175829 64 275 3.0 3.0 0.00 0.00 0.00 62 1009.8
20260507175329 64 264 2.0 2.0 0.00 0.00 0.00 62 1009.5
20260507174829 64 264 3.0 5.0 0.00 0.00 0.00 62 1009.8
20260507174329 64 267 5.0 7.0 0.00 0.00 0.00 61 1009.5
20260507173829 64 274 4.0 6.0 0.00 0.00 0.00 62 1009.5
20260507173329 65 284 5.0 7.0 0.00 0.00 0.00 61 1009.5
20260507172829 65 270 6.0 8.0 0.00 0.00 0.00 60 1009.5
20260507172331 66 282 5.0 7.0 0.00 0.00 0.00 60 1009.5
20260507171829 67 302 4.0 5.0 0.00 0.00 0.00 60 1009.5
20260507171330 66 303 3.0 3.0 0.00 0.00 0.00 61 1009.5
20260507170830 66 299 4.0 7.0 0.00 0.00 0.00 61 1009.5
20260507170330 66 300 6.0 8.0 0.00 0.00 0.00 60 1009.5
20260507165829 66 304 2.0 2.0 0.00 0.00 0.00 60 1009.1
20260507165330 67 301 5.0 7.0 0.00 0.00 0.00 59 1009.1
20260507164829 68 304 2.0 3.0 0.00 0.00 0.00 58 1009.1
20260507164330 68 304 2.0 2.0 0.00 0.00 0.00 58 1008.8
20260507163829 69 303 6.0 8.0 0.00 0.00 0.00 56 1009.1
20260507163329 69 304 1.0 1.0 0.00 0.00 0.00 56 1008.8
20260507162829 71 304 5.0 7.0 0.00 0.00 0.00 52 1009.1
20260507162329 69 305 1.0 2.0 0.00 0.00 0.00 55 1008.8
20260507161831 69 305 2.0 2.0 0.00 0.00 0.00 54 1008.8
20260507161329 69 305 2.0 2.0 0.00 0.00 0.00 54 1008.8
20260507160830 69 305 1.0 1.0 0.00 0.00 0.00 54 1008.8
20260507160329 69 305 1.0 1.0 0.00 0.00 0.00 55 1008.8
20260507155829 69 304 4.0 6.0 0.00 0.00 0.00 53 1008.8
20260507155329 69 305 1.0 2.0 0.00 0.00 0.00 53 1008.8
20260507154831 69 305 1.0 1.0 0.00 0.00 0.00 54 1008.8
20260507154331 70 305 2.0 5.0 0.00 0.00 0.00 52 1009.1
20260507154329 70 305 2.0 5.0 0.00 0.00 0.00 52 1009.1
20260507153830 70 305 1.0 1.0 0.00 0.00 0.00 53 1009.1
20260507153525 71 305 2.0 2.0 0.00 0.06 0.00 52 1009.1
20260507153330 71 305 2.0 2.0 0.00 0.00 0.00 52 1009.1
20260507153118 70 305 2.0 2.0 0.00 0.00 0.00 51 1009.1
20260507152852 69 305 2.0 2.0 0.00 0.00 0.00 53 1009.1
20260507152832 70 305 2.0 2.0 0.00 0.00 0.00 51 1009.1
20260507152330 69 305 2.0 2.0 0.00 0.00 0.00 53 1009.1
20260507152226 69 305 3.0 5.0 0.00 0.00 0.00 54 1009.1
20260507151830 69 305 3.0 5.0 0.00 0.00 0.00 54 1009.1
20260507151330 71 299 7.0 9.0 0.00 0.00 0.00 50 1009.1
20260507150830 73 306 4.0 6.0 0.00 0.00 0.00 49 1009.1
20260507150330 75 306 2.0 3.0 0.00 0.00 0.00 43 1009.1
20260507145831 73 306 0.0 0.0 0.00 0.00 0.00 47 1009.5
20260507145329 71 306 3.0 3.0 0.00 0.00 0.00 47 1009.1
20260507144830 73 306 3.0 6.0 0.00 0.00 0.00 46 1009.1
20260507144329 71 306 1.0 1.0 0.00 0.00 0.00 46 1009.5
20260507143829 73 306 2.0 2.0 0.00 0.00 0.00 46 1009.5
20260507143330 75 307 1.0 1.0 0.00 0.00 0.00 44 1009.5
20260507142831 74 306 2.0 2.0 0.00 0.00 0.00 44 1009.5
20260507142329 73 306 1.0 2.0 0.00 0.00 0.00 45 1009.5
20260507141830 73 306 1.0 2.0 0.00 0.00 0.00 43 1009.5
20260507141330 74 306 4.0 6.0 0.00 0.00 0.00 42 1009.5
20260507140830 74 305 3.0 3.0 0.00 0.00 0.00 42 1009.5
20260507140329 71 306 1.0 1.0 0.00 0.00 0.00 45 1009.5
20260507135830 73 306 5.0 6.0 0.00 0.00 0.00 43 1009.8
20260507135331 73 307 2.0 2.0 0.00 0.00 0.00 44 1009.5
20260507134829 72 306 0.0 1.0 0.00 0.00 0.00 43 1009.5
20260507134330 72 305 4.0 7.0 0.00 0.00 0.00 45 1009.8
20260507133829 71 306 3.0 5.0 0.00 0.00 0.00 46 1009.8
20260507133329 71 306 1.0 1.0 0.00 0.00 0.00 47 1009.8
20260507132829 72 306 2.0 3.0 0.00 0.00 0.00 45 1009.8